Weather History for Waco, TX

Change the Weather History Date:

Tuesday, August 6, 2013

  Actual Average Record
Temperature  
Mean Temperature 88 °F 86 °F  
Max Temperature 99 °F 98 °F 105 °F (1988)
Min Temperature 77 °F 75 °F 67 °F (1975)
Degree Days  
Heating Degree Days 0 0  
Month to date heating degree days 0 0  
Since 1 June heating degree days 0 0  
Since 1 July heating degree days 0 0  
Cooling Degree Days 23 21  
Month to date cooling degree days 137 126  
Year to date cooling degree days 1704 1692  
Since 1 June cooling degree days 1287 1240  
Growing Degree Days 38 (Base 50)    
Moisture  
Dew Point 69 °F    
Average Humidity 58    
Maximum Humidity 82    
Minimum Humidity 33    
Precipitation  
Precipitation 0.00 in 0.06 in 2.91 in (1920)
Month to date precipitation 0.00 0.34  
Year to date precipitation 21.21 20.45  
Sea Level Pressure  
Sea Level Pressure 29.86 in    
Wind  
Wind Speed 13 mph (South)    
Max Wind Speed 22 mph    
Max Gust Speed 28 mph    
Visibility 10 miles    
Events      
T = Trace of Precipitation, MM = Missing Value Source: NWS Daily Summary

Daily Weather History Graph

Daily Weather History Graph

Search for Another Location

Airport:

Trip Planner

Search our weather history database for the weather conditions in past years. The results will help you decide how hot, cold, wet, or windy it might be!

Date:

Astronomy

Aug. 06, 2013 Rise Set
Actual Time 6:48 AM CDT 8:20 PM CDT
Civil Twilight 6:22 AM CDT 8:46 PM CDT
Nautical Twilight 5:50 AM CDT 9:18 PM CDT
Astronomical Twilight 5:18 AM CDT 9:50 PM CDT
Moon 6:37 AM CDT (8/6) 8:01 PM CDT (8/6)
Length of Visible Light 14h 24m
Length of Day
13h 32m
Waning Crescent, 0% of the Moon is Illuminated
Aug 6
Waning Crescent
Aug 6
New
Aug 14
First Quarter
Aug 20
Full
Aug 28
Last Quarter

Hourly Weather History & Observations

Time (CDT) Temp. Heat Index Dew Point Humidity Pressure Visibility Wind Dir Wind Speed Gust Speed Precip Events Conditions
12:51 AM 84.9 °F 88.8 °F 69.1 °F 59% 29.89 in 10.0 mi South 12.7 mph - N/A   Clear
1:51 AM 82.9 °F 86.5 °F 69.1 °F 63% 29.89 in 10.0 mi South 13.8 mph 23.0 mph N/A   Clear
2:51 AM 82.0 °F 85.9 °F 70.0 °F 67% 29.89 in 10.0 mi South 13.8 mph - N/A   Clear
3:51 AM 80.1 °F 83.2 °F 70.0 °F 71% 29.89 in 10.0 mi South 13.8 mph - N/A   Clear
4:51 AM 79.0 °F - 71.1 °F 77% 29.89 in 10.0 mi South 12.7 mph - N/A   Clear
5:51 AM 78.1 °F - 71.1 °F 79% 29.89 in 10.0 mi South 12.7 mph - N/A   Clear
6:51 AM 77.0 °F - 71.1 °F 82% 29.90 in 10.0 mi South 12.7 mph - N/A   Clear
7:51 AM 78.1 °F - 72.0 °F 81% 29.91 in 10.0 mi South 11.5 mph - N/A   Clear
8:51 AM 82.0 °F 86.3 °F 71.1 °F 69% 29.91 in 10.0 mi SSW 12.7 mph - N/A   Clear
9:51 AM 84.9 °F 90.1 °F 71.1 °F 63% 29.92 in 10.0 mi South 11.5 mph - N/A   Clear
10:51 AM 89.1 °F 95.0 °F 71.1 °F 55% 29.91 in 10.0 mi South 16.1 mph - N/A   Clear
11:51 AM 91.9 °F 98.4 °F 71.1 °F 50% 29.91 in 10.0 mi South 15.0 mph - N/A   Clear
12:51 PM 93.9 °F 100.3 °F 70.0 °F 46% 29.90 in 10.0 mi South 16.1 mph 20.7 mph N/A   Clear
1:51 PM 96.1 °F 102.9 °F 70.0 °F 43% 29.88 in 10.0 mi South 10.4 mph - N/A   Clear
2:51 PM 99.0 °F 107.0 °F 71.1 °F 40% 29.85 in 10.0 mi South 11.5 mph - N/A   Clear
3:51 PM 98.1 °F 101.8 °F 66.0 °F 35% 29.83 in 10.0 mi South 12.7 mph 19.6 mph N/A   Clear
4:51 PM 99.0 °F 103.5 °F 66.9 °F 35% 29.81 in 10.0 mi South 13.8 mph 20.7 mph N/A   Clear
5:51 PM 99.0 °F 102.3 °F 64.9 °F 33% 29.80 in 10.0 mi South 12.7 mph - N/A   Clear
6:51 PM 97.0 °F 99.9 °F 64.9 °F 35% 29.79 in 10.0 mi South 15.0 mph - N/A   Clear
7:51 PM 95.0 °F 97.9 °F 66.0 °F 38% 29.78 in 10.0 mi SSE 9.2 mph - N/A   Clear
8:51 PM 91.0 °F 93.8 °F 66.0 °F 44% 29.78 in 10.0 mi SSE 8.1 mph - N/A   Clear
9:51 PM 86.0 °F 90.7 °F 70.0 °F 59% 29.80 in 10.0 mi South 6.9 mph - N/A   Clear
10:51 PM 90.0 °F 92.4 °F 66.0 °F 45% 29.84 in 10.0 mi South 13.8 mph - N/A   Clear
11:51 PM 88.0 °F 91.4 °F 68.0 °F 51% 29.85 in 10.0 mi South 19.6 mph 26.5 mph N/A   Clear